WM1R Weather Reports


time (UTC)temp
F
wind
direction
speed
knots
gust
knots
rain 1hr
in
rain 24hr
in
rain mn
in
humidity
%
barometer
mb
20260507000004 47 238 1.7 5.2 0.04 0.43 0.43 95 1008.9
20260506234504 48 314 0.0 3.5 0.05 0.43 0.43 95 1008.5
20260506233004 48 210 0.0 2.6 0.04 0.42 0.42 95 1008.4
20260506231508 49 266 2.6 6.1 0.04 0.42 0.42 95 1008.2
20260506230007 50 287 2.6 7.0 0.01 0.39 0.39 95 1008.0
20260506224509 51 280 1.7 4.3 0.00 0.38 0.38 94 1007.9
20260506223010 52 306 0.0 2.6 0.00 0.38 0.38 95 1008.0
20260506221508 53 296 0.9 3.5 0.02 0.38 0.38 93 1007.6
20260506220017 56 324 0.9 7.0 0.13 0.38 0.38 93 1007.4
20260506214509 57 217 0.0 1.7 0.14 0.38 0.38 94 1007.2
20260506213008 57 206 0.9 8.7 0.14 0.38 0.38 94 1007.0
20260506211514 57 215 1.7 9.6 0.13 0.40 0.36 94 1007.1
20260506210012 57 213 1.7 5.2 0.02 0.32 0.25 93 1007.2
20260506204508 58 55 0.9 5.2 0.01 0.40 0.24 92 1007.2
20260506203008 58 149 0.9 7.8 0.02 0.40 0.24 92 1007.3
20260506201509 58 220 1.7 4.3 0.02 0.39 0.23 92 1007.3
20260506200015 58 194 0.9 4.3 0.03 0.39 0.23 92 1007.4
20260506194511 58 194 0.9 7.0 0.05 0.39 0.23 92 1007.6
20260506193012 58 257 0.9 8.7 0.05 0.38 0.22 92 1007.7
20260506191511 57 290 1.7 10.4 0.06 0.37 0.21 91 1007.9
20260506190006 57 178 2.6 9.6 0.07 0.36 0.20 92 1008.2
20260506184509 57 149 0.9 4.3 0.08 0.34 0.18 92 1008.5
20260506183015 57 165 1.7 7.0 0.09 0.33 0.17 90 1008.6
20260506181517 57 275 2.6 11.3 0.09 0.31 0.15 90 1008.7
20260506180018 57 212 4.3 13.9 0.09 0.29 0.13 89 1008.7
20260506174507 57 152 1.7 13.0 0.07 0.26 0.10 91 1009.0
20260506173015 57 105 1.7 11.3 0.06 0.24 0.08 92 1009.2
20260506171518 57 199 2.6 6.1 0.04 0.22 0.06 92 1009.3
20260506170015 57 78 0.9 4.3 0.02 0.20 0.04 92 1009.3
20260506164516 57 325 1.7 5.2 0.02 0.19 0.03 91 1009.5
20260506163008 57 261 0.9 6.1 0.01 0.18 0.02 89 1009.8
20260506161515 58 187 1.7 3.5 0.02 0.18 0.02 89 1009.8
20260506160019 58 69 1.7 3.5 0.02 0.18 0.02 88 1010.0
20260506154519 58 145 0.9 4.3 0.01 0.17 0.01 88 1010.4
20260506153010 58 161 0.9 4.3 0.01 0.17 0.01 86 1010.9
20260506151511 58 172 0.0 5.2 0.00 0.16 0.00 84 1011.1
20260506150018 58 213 0.9 6.1 0.00 0.16 0.00 82 1011.0
20260506144518 58 163 0.9 4.3 0.00 0.16 0.00 81 1010.7
20260506143026 58 198 0.9 5.2 0.00 0.16 0.00 81 1010.8
20260506141511 58 202 0.9 6.1 0.00 0.16 0.00 81 1010.9
20260506140020 57 274 0.9 2.6 0.00 0.16 0.00 83 1010.9
20260506134520 57 219 0.9 6.1 0.00 0.16 0.00 83 1010.8
20260506133020 57 133 2.6 7.8 0.00 0.16 0.00 84 1010.7
20260506131522 56 120 3.5 7.8 0.00 0.16 0.00 85 1011.2
20260506130016 56 232 0.0 1.7 0.00 0.16 0.00 86 1011.6
20260506124521 55 124 0.9 1.7 0.00 0.16 0.00 86 1011.0
20260506123031 55 256 0.0 2.6 0.00 0.16 0.00 87 1011.2
20260506121506 55 93 0.0 1.7 0.00 0.16 0.00 86 1011.1
20260506120012 55 249 0.0 2.6 0.00 0.16 0.00 86 1011.2
20260506114516 55 119 0.0 2.6 0.00 0.16 0.00 86 1011.2
20260506113022 54 227 0.9 1.7 0.00 0.16 0.00 86 1011.4
20260506111521 54 257 0.0 4.3 0.00 0.16 0.00 85 1011.2
20260506110008 54 202 0.9 4.3 0.00 0.16 0.00 85 1011.5
20260506104513 54 184 0.0 3.5 0.00 0.16 0.00 87 1011.2
20260506103026 52 209 0.9 2.6 0.00 0.16 0.00 90 1011.3
20260506101524 52 266 0.0 1.7 0.00 0.16 0.00 90 1011.5
20260506100008 52 235 0.0 1.7 0.00 0.16 0.00 89 1011.4
20260506094526 52 234 0.0 0.9 0.00 0.16 0.00 90 1011.4
20260506093026 53 234 0.0 0.9 0.00 0.16 0.00 89 1011.4
20260506091524 53 202 0.9 1.7 0.00 0.16 0.00 88 1011.3
20260506090026 53 214 0.9 1.7 0.00 0.16 0.00 88 1011.7
20260506084510 53 227 0.9 1.7 0.00 0.16 0.00 87 1011.7
20260506083018 53 227 0.9 2.6 0.00 0.16 0.00 86 1011.9
20260506081520 54 213 1.7 1.7 0.00 0.16 0.00 85 1012.0
20260506073016 55 205 1.7 2.6 0.00 0.16 0.00 84 1012.0
20260506071520 56 213 0.0 1.7 0.00 0.16 0.00 84 1012.1
20260506061521 58 213 1.7 6.1 0.00 0.16 0.00 79 1011.8
20260506044525 60 169 0.0 2.6 0.00 0.16 0.00 76 1011.7
20260506043028 61 189 1.7 7.8 0.00 0.16 0.00 74 1011.5
20260506041528 61 281 0.9 4.3 0.00 0.16 0.00 73 1011.7
20260506040017 62 265 3.5 10.4 0.00 0.16 0.00 71 1011.8
20260506034522 62 178 1.7 7.8 0.00 0.16 0.16 70 1011.6
20260506033025 62 190 1.7 6.1 0.00 0.16 0.16 71 1011.5
20260506031526 62 149 1.7 4.3 0.00 0.16 0.16 71 1011.6
20260506030018 61 169 1.7 5.2 0.00 0.16 0.16 72 1011.7
20260506024526 60 172 0.9 6.1 0.00 0.16 0.16 74 1011.6
20260506023004 60 133 0.0 4.3 0.00 0.16 0.16 77 1011.5
20260506021509 59 59 1.7 6.1 0.00 0.16 0.16 78 1011.5
20260506020016 58 165 0.9 3.5 0.00 0.16 0.16 80 1011.5
20260506014519 57 190 0.0 2.6 0.00 0.16 0.16 83 1011.2
20260506013024 57 185 0.0 2.6 0.00 0.16 0.16 82 1011.3
20260506011504 58 243 0.9 2.6 0.00 0.16 0.16 82 1011.2
20260506010012 58 198 0.9 1.7 0.00 0.16 0.16 83 1011.3
20260506004516 58 182 0.9 2.6 0.00 0.16 0.16 85 1011.2
20260506003024 58 192 0.0 2.6 0.00 0.16 0.16 86 1010.9
20260506001526 58 182 0.0 3.5 0.00 0.16 0.16 84 1010.8